Regional Weather Roundup
Issued by NWS Goodland, KS

Home | Current Version | Previous Version | Graphics & Text | Print | Product List | Glossary On
Versions: 1 2 3 4 5 6 7 8 9 10 11 12 13 14 15 16 17 18 19 20 21 22 23 24 25 26 27 28 29 30 31 32 33 34 35 36 37 38 39 40 41 42 43 44 45 46 47 48 49 50
000
ASUS43 KGLD 221659
RWRGLD

GOODLAND FORECAST AREA HOURLY WEATHER ROUNDUP
NATIONAL WEATHER SERVICE GOODLAND KS
1100 AM MDT TUE AUG 22 2017

...OFFICIAL OBSERVATIONS...

CITY           SKY/WX    TMP DP  RH WIND       PRES   REMARKS
GOODLAND KS    CLOUDY    68  60  75 E6        30.32F
HILL CITY KS   SUNNY     78  59  51 NE13      30.26R
IMPERIAL NEB   SUNNY     74  45  35 E7        30.31S
MCCOOK NEB     SUNNY     73  54  51 VRB6      30.29R
AKRON CO       SUNNY     70  50  49 SE15      30.35F
BURLINGTON CO  PTSUNNY   72  56  57 E10       30.35S
LIMON CO       MOSUNNY   69  55  60 SE13      30.38F
$$

...UNOFFICIAL OBSERVATIONS...

CITY           SKY/WX    TMP DP  RH WIND       PRES   REMARKS
NORTON KS      SUNNY     75  46  35 NE8       30.26S
KIT CARSON CO    N/A     69  57  65 MISG        N/A
YUMA CO        FAIR      66  41  39 E8        30.34S
$$



USA.gov is the U.S. government's official web portal to all federal, state and local government web resources and services.